Flag for Canada Weather past 2 weeks in Mississauga, Ontario, Canada

Now
55 °F

Sunny.


Feels Like: 53 °F
Forecast: 53 / 72 °F
Wind: 8 mph from Northwest

Location: Toronto Pearson International Airport

Current Time: Jul 3, 2015 at 7:21:43 AM

Latest Report: Jul 3, 2015 at 7:00 AM


Visibility: 15 mi

Pressure: 30.02 "Hg

Humidity: 63%

Dew point: 43 °F

Location of MississaugaLocation

Historic Weather in Mississauga — Graph

°F

Mississauga temperature yesterday

Maximum temperature yesterday: 72 °F (at 5:00 PM)
Minimum temperature yesterday: 55 °F (at 6:00 AM)
Average temperature yesterday: 64 °F

Past Weeks' High & Low Weather Summary

 TemperatureHumidityPressure
High81 °F (Jun 18, 6:00 PM)100% (Jun 28, 11:00 AM)30.11 "Hg (Jun 28, 11:00 AM)
Low52 °F (Jul 3, 5:00 AM)32% (Jul 2, 8:00 PM)29.63 "Hg (Jun 23, 5:00 AM)
Average66 °F70%29.91 "Hg
* Reported Jun 18 6:00 AM — Jul 3 6:00 AM, Mississauga, Weather by CustomWeather, © 2015

Note: Actual official high and low records may vary slightly from our data, if they occured in-between our weather recording intervals... More about our weather records

Advertising

Mississauga weather history for previous 24 hours

 ConditionsComfort  
Time TempWeatherWind HumidityBarometerVisibility
6:00 AM
Fri, Jul 3
52 °FClear.8 mph67%30.01 "Hg15 mi
5:00 AM52 °FClear.5 mph67%30.00 "Hg15 mi
4:00 AM54 °FClear.7 mph63%29.99 "Hg15 mi
3:00 AM55 °FClear.9 mph59%29.99 "Hg15 mi
2:00 AM55 °FClear.10 mph63%30.00 "Hg15 mi
1:00 AM57 °FClear.10 mph59%30.00 "Hg15 mi
12:00 AM59 °FClear.8 mph51%30.00 "Hg15 mi
11:00 PM
Thu, Jul 2
61 °FClear.12 mph48%29.99 "Hg15 mi
10:00 PM63 °FPassing clouds.10 mph45%29.98 "Hg15 mi
9:00 PM64 °FPassing clouds.12 mph40%29.97 "Hg15 mi
8:00 PM66 °FPassing clouds.12 mph32%29.97 "Hg15 mi
7:00 PM68 °FPassing clouds.10 mph35%29.96 "Hg15 mi
6:00 PM70 °FPassing clouds.14 mph38%29.96 "Hg15 mi
5:00 PM72 °FPassing clouds.13 mph41%29.96 "Hg15 mi
4:00 PM70 °FPassing clouds.12 mph43%29.96 "Hg15 mi
3:00 PM70 °FPassing clouds.9 mph43%29.97 "Hg15 mi
2:00 PM70 °FScattered clouds.7 mph43%29.98 "Hg15 mi
1:00 PM70 °FPartly sunny.8 mph43%29.99 "Hg15 mi
12:00 PM68 °FScattered clouds.6 mph46%29.99 "Hg15 mi
11:00 AM66 °FScattered clouds.13 mph46%29.99 "Hg15 mi
10:00 AM64 °FPassing clouds.9 mph56%29.99 "Hg15 mi
9:00 AM63 °FPassing clouds.7 mph68%29.98 "Hg15 mi
8:00 AM59 °FPassing clouds.5 mph77%29.97 "Hg15 mi
7:00 AM57 °FPassing clouds.8 mph82%29.97 "Hg15 mi
Weather by CustomWeather, © 2015

See weather overviewHow to use our weather pages